This is the latest recevied weather packets stored in our database for station/object IT9CNT. If no packets are shown the sender has not sent any weather packets the latest 10 day(s).
| Time | Temp. | Humidity | Pressure | Rain* | Wind** | Luminosity | Snow |
|---|---|---|---|---|---|---|---|
| 1787508543 | 28.33° C | 72% | 1012.9 hPa | 6.1 mm | - | - | - |
| 1787508484 | 28.33° C | 72% | 1013 hPa | 6.1 mm | - | - | - |
| 1787508423 | 28.33° C | 71% | 1012.6 hPa | 6.1 mm | - | - | - |
| 1787508363 | 28.33° C | 70% | 1012.9 hPa | 6.1 mm | - | - | - |
| 1787508304 | 28.33° C | 71% | 1012.9 hPa | 6.1 mm | - | - | - |
| 1787508243 | 28.33° C | 73% | 1012.9 hPa | 6.1 mm | - | - | - |
| 1787508183 | 28.33° C | 74% | 1013 hPa | 6.1 mm | - | - | - |
| 1787508123 | 28.33° C | 74% | 1012.7 hPa | 6.1 mm | - | - | - |
| 1787508063 | 28.33° C | 75% | 1012.8 hPa | 6.1 mm | - | - | - |
| 1787508004 | 28.33° C | 76% | 1012.7 hPa | 6.1 mm | - | - | - |
| 1787507943 | 28.33° C | 76% | 1012.9 hPa | 5.59 mm | - | - | - |
| 1787507883 | 28.33° C | 77% | 1012.8 hPa | 5.33 mm | - | - | - |
| 1787507823 | 28.33° C | 77% | 1012.7 hPa | 5.33 mm | - | - | - |
| 1787507763 | 28.33° C | 77% | 1012.6 hPa | 5.33 mm | - | - | - |
| 1787507703 | 28.33° C | 77% | 1012.8 hPa | 5.33 mm | - | - | - |
| 1787507643 | 28.33° C | 78% | 1012.9 hPa | 5.08 mm | - | - | - |
| 1787507583 | 28.33° C | 78% | 1012.7 hPa | 4.83 mm | - | - | - |
| 1787507523 | 28.33° C | 78% | 1012.6 hPa | 4.32 mm | - | - | - |
| 1787507463 | 28.33° C | 78% | 1012.7 hPa | 3.56 mm | - | - | - |
| 1787507403 | 28.33° C | 78% | 1012.5 hPa | 3.56 mm | - | - | - |
| 1787507343 | 28.33° C | 78% | 1012.5 hPa | 3.56 mm | - | - | - |
| 1787507283 | 28.33° C | 78% | 1012.6 hPa | 3.05 mm | - | - | - |
| 1787507223 | 28.33° C | 78% | 1012.9 hPa | 2.79 mm | - | - | - |
| 1787507163 | 28.33° C | 78% | 1012.6 hPa | 2.29 mm | - | - | - |
| 1787507103 | 28.89° C | 78% | 1012.8 hPa | 2.03 mm | - | - | - |
* Rain latest hour (hover to see other rain measurements)
** Current wind speed in m/s (hover to see current wind gust speed)